Total_Precipitation_Accumulation
0.26 0.22 0.26 0.29 0.30 0.26 0.23 0.16 0.16 0.19 0.17 0.21 0.26 0.26 0.20 0.22 0.28 0.23 0.18 0.22 0.38 0.70 0.58 0.37 0.34 0.27 0.14
0.21 0.25 0.26 0.28 0.30 0.29 0.27 0.29 0.30 0.35 0.23 0.21 0.19 0.18 0.20 0.18 0.13 0.16 0.20 0.22 0.20 0.24 0.34 0.27 0.19 0.18 0.14
0.16 0.10 0.12 0.16 0.22 0.24 0.25 0.26 0.26 0.36 0.24 0.26 0.26 0.21 0.14 0.10 0.13 0.12 0.12 0.15 0.19 0.22 0.26 0.22 0.16 0.14 0.11
0.34 0.33 0.28 0.25 0.25 0.27 0.30 0.29 0.24 0.19 0.22 0.25 0.27 0.23 0.18 0.11 0.08 0.09 0.15 0.16 0.15 0.13 0.15 0.17 0.15 0.13 0.11
0.64 0.52 0.47 0.42 0.39 0.39 0.40 0.38 0.33 0.26 0.23 0.24 0.24 0.24 0.27 0.24 0.16 0.12 0.08 0.07 0.10 0.10 0.09 0.09 0.07 0.03 0.02
0.48 0.52 0.58 0.60 0.57 0.54 0.51 0.47 0.41 0.32 0.34 0.35 0.33 0.31 0.28 0.26 0.32 0.23 0.16 0.11 0.07 0.06 0.05 0.04 0.02 0.01 0.01
0.38 0.31 0.28 0.28 0.31 0.35 0.37 0.36 0.37 0.39 0.39 0.37 0.32 0.27 0.22 0.19 0.17 0.13 0.10 0.08 0.07 0.04 0.02 0.01 0.01 0.00 0.00
0.17 0.18 0.14 0.13 0.15 0.20 0.24 0.30 0.31 0.24 0.13 0.12 0.12 0.09 0.06 0.04 0.02 0.01 0.00 0.00 0.00 0.00 0.00 0.00 0.00 0.00 0.00
0.26 0.23 0.16 0.09 0.08 0.07 0.07 0.06 0.07 0.04 0.00 0.01 0.01 0.01 0.01 0.01 0.00 0.00 0.00 0.00 0.00 0.00 0.00 0.00 0.00 0.00 0.00
0.01 0.00 0.00 0.00 0.00 0.00 0.00 0.00 0.00 0.01 0.00 0.00 0.00 0.00 0.00 0.00 0.00 0.00 0.00 0.00 0.00 0.00 0.00 0.00 0.00 0.00 0.00
0.00 0.00 0.00 0.00 0.00 0.00 0.00 0.00 0.00 0.00 0.00 0.00 0.00 0.00 0.00 0.00 0.00 0.00 0.00 0.00 0.00 0.00 0.00 0.00 0.00 0.00 0.00
0.00 0.00 0.00 0.00 0.00 0.00 0.00 0.00 0.00 0.00 0.00 0.00 0.00 0.00 0.00 0.00 0.00 0.00 0.00 0.00 0.00 0.00 0.00 0.00 0.00 0.00 0.00
0.00 0.00 0.00 0.00 0.00 0.00 0.00 0.00 0.00 0.00 0.00 0.00 0.00 0.00 0.00 0.00 0.00 0.00 0.00 0.00 0.00 0.00 0.00 0.00 0.00 0.00 0.00
0.00 0.00 0.00 0.00 0.00 0.00 0.00 0.00 0.00 0.00 0.00 0.00 0.00 0.00 0.00 0.00 0.00 0.00 0.00 0.00 0.00 0.00 0.00 0.00 0.00 0.00 0.00
0.00 0.00 0.00 0.00 0.00 0.00 0.00 0.00 0.00 0.00 0.00 0.00 0.00 0.00 0.00 0.00 0.00 0.00 0.00 0.00 0.00 0.00 0.00 0.00 0.00 0.00 0.00
0.00 0.00 0.00 0.00 0.00 0.00 0.00 0.00 0.00 0.00 0.00 0.00 0.00 0.00 0.01 0.00 0.00 0.00 0.00 0.00 0.00 0.00 0.00 0.01 0.00 0.00 0.00
0.00 0.00 0.00 0.00 0.00 0.00 0.00 0.00 0.00 0.00 0.00 0.00 0.02 0.06 0.08 0.02 0.00 0.00 0.00 0.00 0.00 0.00 0.00 0.00 0.00 0.00 0.00